Location: Caltech
(34.1382°N, 118.1253°W)
Time: 04:53:25
(UTC-07:00)

AO-27 - Visible Passes

Search period start: 21 August 2017 00:00
Search period end: 31 August 2017 00:00
Orbit: 785 x 798 km, 98.8° (Epoch: 21 August)

Date Brightness Start Highest point End Pass type
(mag) Time Alt. Az. Time Alt. Az. Time Alt. Az.
21 Aug 10.0 03:20:28 10° NE 03:23:41 17° E 03:25:57 13° ESE visible
21 Aug 7.9 04:58:24 10° N 05:03:22 48° WNW 05:06:42 20° SW visible
22 Aug 7.6 04:29:12 10° NNE 04:34:24 87° ESE 04:37:14 28° SSW visible
23 Aug 8.6 04:00:24 10° NNE 04:05:20 43° E 04:07:46 26° SSE visible
23 Aug 9.1 05:40:51 10° NNW 05:44:27 19° WNW 05:48:02 10° WSW visible
24 Aug 9.7 03:32:10 10° NE 03:36:09 22° E 03:38:18 17° SE visible
24 Aug 8.3 05:10:57 10° N 05:15:39 36° WNW 05:19:03 17° SW visible
25 Aug 10.4 03:05:55 10° E 03:06:50 10° E 03:07:45 10° ESE visible
25 Aug 7.6 04:41:35 10° N 04:46:45 72° WNW 04:49:35 27° SSW visible
26 Aug 8.1 04:12:36 10° NNE 04:17:43 58° ESE 04:20:07 30° SSE visible
26 Aug 9.4 05:53:52 10° NNW 05:56:39 15° WNW 05:59:27 10° W visible
27 Aug 9.3 03:44:06 10° NE 03:48:34 29° E 03:50:39 22° SE visible
27 Aug 8.6 05:23:35 10° NNW 05:27:55 28° WNW 05:31:24 14° WSW visible
28 Aug 10.1 03:16:31 10° ENE 03:19:19 15° E 03:21:11 12° ESE visible
28 Aug 7.8 04:54:01 10° N 04:59:04 54° WNW 05:01:56 25° SW visible
29 Aug 7.7 04:24:53 10° NNE 04:30:05 77° ESE 04:32:28 33° S visible
30 Aug 8.8 03:56:10 10° NNE 04:00:59 38° E 04:03:00 28° SE visible
30 Aug 9.0 05:36:19 10° NNW 05:40:10 22° WNW 05:43:44 11° WSW visible
